| time (UTC) | temp F | wind direction | speed MPH | gust MPH | rain 1hr in | rain 24hr in | rain mn in | humidity % | barometer mb |
| 20260903192516 | 70 | 0.0 | 0.0 | 0.00 | 0.00 | 0.00 | 58 | 1022.2 | |
| 20260903191516 | 71 | 0.0 | 0.0 | 0.00 | 0.00 | 0.00 | 57 | 1022.2 | |
| 20260903190516 | 71 | 0.0 | 0.0 | 0.00 | 0.00 | 0.00 | 56 | 1022.0 | |
| 20260903185516 | 71 | 0.0 | 0.0 | 0.00 | 0.00 | 0.00 | 56 | 1021.9 | |
| 20260903184516 | 72 | 0.0 | 0.0 | 0.00 | 0.00 | 0.00 | 55 | 1022.1 | |
| 20260903183536 | 72 | 0.0 | 0.0 | 0.00 | 0.00 | 0.00 | 55 | 1021.8 | |
| 20260903182516 | 73 | 0.0 | 0.0 | 0.00 | 0.00 | 0.00 | 55 | 1021.7 | |
| 20260903181516 | 73 | 0.0 | 0.0 | 0.00 | 0.00 | 0.00 | 54 | 1021.7 | |
| 20260903180516 | 74 | 0.0 | 0.0 | 0.00 | 0.00 | 0.00 | 54 | 1021.5 | |
| 20260903175516 | 75 | 0.0 | 0.0 | 0.00 | 0.00 | 0.00 | 52 | 1021.3 | |
| 20260903174516 | 75 | 0.0 | 0.0 | 0.00 | 0.00 | 0.00 | 51 | 1021.6 | |
| 20260903173516 | 75 | 0.0 | 0.0 | 0.00 | 0.00 | 0.00 | 51 | 1021.4 | |
| 20260903172516 | 76 | 0.0 | 0.0 | 0.00 | 0.00 | 0.00 | 50 | 1021.4 | |
| 20260903171536 | 76 | 0.0 | 0.0 | 0.00 | 0.00 | 0.00 | 49 | 1021.5 | |
| 20260903170516 | 76 | 0.0 | 0.0 | 0.00 | 0.00 | 0.00 | 49 | 1021.6 | |
| 20260903165536 | 77 | 0.0 | 0.0 | 0.00 | 0.00 | 0.00 | 50 | 1021.5 | |
| 20260903164515 | 77 | 0.0 | 2.0 | 0.00 | 0.00 | 0.00 | 50 | 1021.5 | |
| 20260903163515 | 77 | 0.0 | 0.0 | 0.00 | 0.00 | 0.00 | 49 | 1021.5 | |
| 20260903162515 | 77 | 0.0 | 2.0 | 0.00 | 0.00 | 0.00 | 49 | 1021.5 | |
| 20260903161516 | 77 | 0.0 | 0.0 | 0.00 | 0.00 | 0.00 | 49 | 1021.6 | |
| 20260903160516 | 78 | 0.0 | 1.0 | 0.00 | 0.00 | 0.00 | 48 | 1021.7 | |
| 20260903155535 | 78 | 0.0 | 1.0 | 0.00 | 0.00 | 0.00 | 47 | 1021.7 | |
| 20260903154515 | 78 | 0.0 | 2.0 | 0.00 | 0.00 | 0.00 | 46 | 1021.7 | |
| 20260903153536 | 79 | 0.0 | 2.0 | 0.00 | 0.00 | 0.00 | 47 | 1021.7 | |
| 20260903152515 | 79 | 0.0 | 1.0 | 0.00 | 0.00 | 0.00 | 47 | 1021.7 | |
| 20260903151636 | 79 | 0.0 | 2.0 | 0.00 | 0.00 | 0.00 | 47 | 1021.8 | |
| 20260903150515 | 79 | 0.0 | 0.0 | 0.00 | 0.00 | 0.00 | 46 | 1021.9 | |
| 20260903145515 | 78 | 0.0 | 0.0 | 0.00 | 0.00 | 0.00 | 50 | 1021.9 | |
| 20260903144515 | 78 | 0.0 | 0.0 | 0.00 | 0.00 | 0.00 | 46 | 1021.9 | |
| 20260903143516 | 78 | 0.0 | 0.0 | 0.00 | 0.00 | 0.00 | 45 | 1022.0 | |
| 20260903142515 | 79 | 0.0 | 3.0 | 0.00 | 0.00 | 0.00 | 46 | 1022.2 | |
| 20260903141515 | 80 | 0.0 | 2.0 | 0.00 | 0.00 | 0.00 | 43 | 1022.4 | |
| 20260903140515 | 80 | 0.0 | 2.0 | 0.00 | 0.00 | 0.00 | 44 | 1022.2 | |
| 20260903135515 | 81 | 0.0 | 1.0 | 0.00 | 0.00 | 0.00 | 44 | 1022.3 | |
| 20260903134515 | 80 | 0.0 | 2.0 | 0.00 | 0.00 | 0.00 | 46 | 1022.2 | |
| 20260903133515 | 80 | 0.0 | 3.0 | 0.00 | 0.00 | 0.00 | 43 | 1022.4 | |
| 20260903132516 | 80 | 0.0 | 3.0 | 0.00 | 0.00 | 0.00 | 42 | 1022.5 | |
| 20260903131555 | 80 | 0.0 | 3.0 | 0.00 | 0.00 | 0.00 | 44 | 1022.4 | |
| 20260903130516 | 79 | 0.0 | 2.0 | 0.00 | 0.00 | 0.00 | 46 | 1022.3 | |
| 20260903125515 | 79 | 0.0 | 4.0 | 0.00 | 0.00 | 0.00 | 48 | 1022.4 | |
| 20260903124515 | 79 | 0.0 | 3.0 | 0.00 | 0.00 | 0.00 | 47 | 1022.6 | |
| 20260903123515 | 79 | 0.0 | 2.0 | 0.00 | 0.00 | 0.00 | 47 | 1022.7 | |
| 20260903122515 | 79 | 0.0 | 1.0 | 0.00 | 0.00 | 0.00 | 49 | 1022.6 | |
| 20260903121515 | 79 | 0.0 | 0.0 | 0.00 | 0.00 | 0.00 | 51 | 1022.9 | |
| 20260903120515 | 78 | 0.0 | 0.0 | 0.00 | 0.00 | 0.00 | 52 | 1023.1 | |
| 20260903115515 | 79 | 0.0 | 5.0 | 0.00 | 0.00 | 0.00 | 49 | 1023.2 | |
| 20260903114515 | 77 | 0.0 | 2.0 | 0.00 | 0.00 | 0.00 | 53 | 1023.3 | |
| 20260903113515 | 78 | 0.0 | 1.0 | 0.00 | 0.00 | 0.00 | 51 | 1023.2 | |
| 20260903112517 | 78 | 0.0 | 3.0 | 0.00 | 0.00 | 0.00 | 49 | 1023.3 | |
| 20260903111517 | 79 | 0.0 | 2.0 | 0.00 | 0.00 | 0.00 | 51 | 1023.6 | |
| 20260903110517 | 78 | 0.0 | 6.0 | 0.00 | 0.00 | 0.00 | 55 | 1023.7 | |
| 20260903105517 | 77 | 315 | 1.0 | 7.0 | 0.00 | 0.00 | 0.00 | 55 | 1023.6 |
| 20260903104517 | 77 | 0.0 | 3.0 | 0.00 | 0.00 | 0.00 | 53 | 1023.6 | |
| 20260903103537 | 77 | 0.0 | 6.0 | 0.00 | 0.00 | 0.00 | 53 | 1023.8 | |
| 20260903102517 | 77 | 0.0 | 5.0 | 0.00 | 0.00 | 0.00 | 55 | 1023.8 | |
| 20260903101537 | 76 | 0.0 | 3.0 | 0.00 | 0.00 | 0.00 | 55 | 1023.7 | |
| 20260903100517 | 75 | 0.0 | 1.0 | 0.00 | 0.00 | 0.00 | 62 | 1023.9 | |
| 20260903095517 | 75 | 0.0 | 2.0 | 0.00 | 0.00 | 0.00 | 63 | 1023.9 | |
| 20260903094517 | 74 | 0.0 | 2.0 | 0.00 | 0.00 | 0.00 | 64 | 1023.9 | |
| 20260903093517 | 73 | 0.0 | 0.0 | 0.00 | 0.00 | 0.00 | 66 | 1023.9 | |
| 20260903092517 | 73 | 0.0 | 0.0 | 0.00 | 0.00 | 0.00 | 68 | 1024.1 | |
| 20260903091517 | 73 | 0.0 | 2.0 | 0.00 | 0.00 | 0.00 | 65 | 1024.1 | |
| 20260903090517 | 72 | 0.0 | 2.0 | 0.00 | 0.00 | 0.00 | 67 | 1024.0 | |
| 20260903085517 | 70 | 0.0 | 2.0 | 0.00 | 0.00 | 0.00 | 70 | 1023.8 | |
| 20260903084517 | 70 | 0.0 | 2.0 | 0.00 | 0.00 | 0.00 | 74 | 1024.0 | |
| 20260903083557 | 70 | 0.0 | 3.0 | 0.00 | 0.00 | 0.00 | 74 | 1024.2 | |
| 20260903082517 | 70 | 0.0 | 0.0 | 0.00 | 0.00 | 0.00 | 74 | 1024.1 | |
| 20260903081517 | 71 | 0.0 | 0.0 | 0.00 | 0.00 | 0.00 | 73 | 1023.8 | |
| 20260903080517 | 70 | 0.0 | 0.0 | 0.00 | 0.00 | 0.00 | 72 | 1023.7 | |
| 20260903075517 | 69 | 0.0 | 0.0 | 0.00 | 0.00 | 0.00 | 76 | 1023.5 | |
| 20260903074517 | 69 | 0.0 | 0.0 | 0.00 | 0.00 | 0.00 | 77 | 1023.7 | |
| 20260903073517 | 68 | 0.0 | 0.0 | 0.00 | 0.00 | 0.00 | 81 | 1023.8 | |
| 20260903072517 | 67 | 0.0 | 0.0 | 0.00 | 0.00 | 0.00 | 84 | 1024.0 | |
| 20260903071517 | 66 | 0.0 | 0.0 | 0.00 | 0.00 | 0.00 | 87 | 1023.8 | |
| 20260903070517 | 65 | 0.0 | 0.0 | 0.00 | 0.00 | 0.00 | 89 | 1023.9 | |
| 20260903065537 | 63 | 0.0 | 0.0 | 0.00 | 0.00 | 0.00 | 90 | 1024.0 | |
| 20260903064517 | 62 | 0.0 | 0.0 | 0.00 | 0.00 | 0.00 | 91 | 1024.2 | |
| 20260903063517 | 60 | 0.0 | 0.0 | 0.00 | 0.00 | 0.00 | 91 | 1024.0 | |
| 20260903062517 | 59 | 0.0 | 0.0 | 0.00 | 0.00 | 0.00 | 91 | 1023.9 | |
| 20260903061517 | 58 | 0.0 | 0.0 | 0.00 | 0.00 | 0.00 | 90 | 1023.7 | |
| 20260903060517 | 58 | 0.0 | 0.0 | 0.00 | 0.00 | 0.00 | 89 | 1023.6 | |
| 20260903055537 | 57 | 0.0 | 0.0 | 0.00 | 0.00 | 0.00 | 89 | 1023.6 | |
| 20260903054517 | 57 | 0.0 | 0.0 | 0.00 | 0.00 | 0.00 | 88 | 1023.3 | |
| 20260903053517 | 57 | 0.0 | 0.0 | 0.00 | 0.00 | 0.00 | 88 | 1023.4 | |
| 20260903052517 | 57 | 0.0 | 0.0 | 0.00 | 0.00 | 0.00 | 87 | 1023.2 | |
| 20260903051517 | 57 | 0.0 | 0.0 | 0.00 | 0.00 | 0.00 | 87 | 1023.2 | |
| 20260903050517 | 57 | 0.0 | 0.0 | 0.00 | 0.00 | 0.00 | 87 | 1023.3 | |
| 20260903045517 | 57 | 0.0 | 0.0 | 0.00 | 0.00 | 0.00 | 87 | 1023.5 | |
| 20260903044517 | 57 | 0.0 | 0.0 | 0.00 | 0.00 | 0.00 | 86 | 1023.3 | |
| 20260903043517 | 57 | 0.0 | 0.0 | 0.00 | 0.00 | 0.00 | 86 | 1023.0 | |
| 20260903042517 | 57 | 0.0 | 0.0 | 0.00 | 0.00 | 0.00 | 85 | 1022.9 | |
| 20260903041537 | 57 | 0.0 | 0.0 | 0.00 | 0.00 | 0.00 | 85 | 1023.0 | |
| 20260903040517 | 57 | 0.0 | 0.0 | 0.00 | 0.00 | 0.00 | 85 | 1023.2 | |
| 20260903035557 | 57 | 0.0 | 0.0 | 0.00 | 0.00 | 0.00 | 84 | 1023.2 | |
| 20260903034537 | 57 | 0.0 | 0.0 | 0.00 | 0.00 | 0.00 | 84 | 1023.2 | |
| 20260903033517 | 58 | 0.0 | 0.0 | 0.00 | 0.00 | 0.00 | 84 | 1023.3 | |
| 20260903032517 | 58 | 0.0 | 0.0 | 0.00 | 0.00 | 0.00 | 83 | 1023.1 | |
| 20260903031517 | 58 | 0.0 | 0.0 | 0.00 | 0.00 | 0.00 | 82 | 1023.1 | |
| 20260903030517 | 58 | 0.0 | 0.0 | 0.00 | 0.00 | 0.00 | 81 | 1023.0 | |
| 20260903025517 | 59 | 0.0 | 0.0 | 0.00 | 0.00 | 0.00 | 81 | 1023.0 | |
| 20260903024517 | 59 | 0.0 | 0.0 | 0.00 | 0.00 | 0.00 | 81 | 1023.0 | |
| 20260903023517 | 59 | 0.0 | 0.0 | 0.00 | 0.00 | 0.00 | 81 | 1022.8 | |
| 20260903022517 | 59 | 0.0 | 0.0 | 0.00 | 0.00 | 0.00 | 80 | 1022.9 | |
| 20260903021517 | 60 | 0.0 | 0.0 | 0.00 | 0.00 | 0.00 | 80 | 1023.0 | |
| 20260903020517 | 60 | 0.0 | 0.0 | 0.00 | 0.00 | 0.00 | 79 | 1023.1 | |
| 20260903015517 | 60 | 0.0 | 0.0 | 0.00 | 0.00 | 0.00 | 79 | 1023.1 | |
| 20260903014517 | 61 | 0.0 | 0.0 | 0.00 | 0.00 | 0.00 | 78 | 1023.1 | |
| 20260903013517 | 61 | 0.0 | 0.0 | 0.00 | 0.00 | 0.00 | 79 | 1023.1 | |
| 20260903012517 | 61 | 0.0 | 0.0 | 0.00 | 0.00 | 0.00 | 79 | 1023.1 | |
| 20260903011517 | 62 | 0.0 | 0.0 | 0.00 | 0.00 | 0.00 | 78 | 1023.2 | |
| 20260903010517 | 62 | 0.0 | 0.0 | 0.00 | 0.00 | 0.00 | 77 | 1023.2 | |
| 20260903005516 | 62 | 0.0 | 0.0 | 0.00 | 0.00 | 0.00 | 76 | 1023.1 | |
| 20260903004537 | 62 | 0.0 | 0.0 | 0.00 | 0.00 | 0.00 | 75 | 1023.0 | |
| 20260903003517 | 62 | 0.0 | 0.0 | 0.00 | 0.00 | 0.00 | 75 | 1022.9 | |
| 20260903002537 | 62 | 0.0 | 0.0 | 0.00 | 0.00 | 0.00 | 75 | 1022.9 | |
| 20260903001557 | 63 | 0.0 | 0.0 | 0.00 | 0.00 | 0.00 | 75 | 1022.9 | |
| 20260903000516 | 63 | 0.0 | 0.0 | 0.00 | 0.00 | 0.00 | 75 | 1022.9 | |
| 20260902235516 | 63 | 0.0 | 0.0 | 0.00 | 0.00 | 0.00 | 73 | 1022.8 | |
| 20260902234516 | 63 | 0.0 | 0.0 | 0.00 | 0.00 | 0.00 | 72 | 1022.9 | |
| 20260902233516 | 64 | 0.0 | 0.0 | 0.00 | 0.00 | 0.00 | 71 | 1022.9 | |
| 20260902232537 | 64 | 0.0 | 0.0 | 0.00 | 0.00 | 0.00 | 71 | 1022.8 | |
| 20260902231517 | 65 | 0.0 | 0.0 | 0.00 | 0.00 | 0.00 | 71 | 1022.9 | |
| 20260902230517 | 65 | 0.0 | 0.0 | 0.00 | 0.00 | 0.00 | 70 | 1023.0 | |
| 20260902225517 | 65 | 0.0 | 0.0 | 0.00 | 0.00 | 0.00 | 68 | 1022.9 | |
| 20260902224516 | 66 | 0.0 | 0.0 | 0.00 | 0.00 | 0.00 | 67 | 1022.9 | |
| 20260902223537 | 66 | 0.0 | 0.0 | 0.00 | 0.00 | 0.00 | 67 | 1022.9 | |
| 20260902222517 | 66 | 0.0 | 0.0 | 0.00 | 0.00 | 0.00 | 67 | 1022.9 | |
| 20260902221516 | 67 | 0.0 | 0.0 | 0.00 | 0.00 | 0.00 | 66 | 1022.8 | |
| 20260902220516 | 67 | 0.0 | 0.0 | 0.00 | 0.00 | 0.00 | 65 | 1022.6 | |
| 20260902215517 | 67 | 0.0 | 0.0 | 0.00 | 0.00 | 0.00 | 64 | 1022.6 | |
| 20260902214517 | 68 | 0.0 | 0.0 | 0.00 | 0.00 | 0.00 | 64 | 1022.6 | |
| 20260902213516 | 68 | 0.0 | 0.0 | 0.00 | 0.00 | 0.00 | 63 | 1022.5 | |
| 20260902212517 | 68 | 0.0 | 0.0 | 0.00 | 0.00 | 0.00 | 63 | 1022.5 | |
| 20260902211517 | 68 | 0.0 | 0.0 | 0.00 | 0.00 | 0.00 | 63 | 1022.4 | |
| 20260902210517 | 68 | 0.0 | 0.0 | 0.00 | 0.00 | 0.00 | 63 | 1022.3 | |
| 20260902205517 | 68 | 0.0 | 1.0 | 0.00 | 0.00 | 0.00 | 63 | 1022.2 | |
| 20260902204557 | 68 | 0.0 | 0.0 | 0.00 | 0.00 | 0.00 | 62 | 1022.1 | |
| 20260902203517 | 68 | 0.0 | 0.0 | 0.00 | 0.00 | 0.00 | 61 | 1022.0 | |
| 20260902202517 | 69 | 0.0 | 0.0 | 0.00 | 0.00 | 0.00 | 61 | 1022.0 | |
| 20260902201517 | 69 | 0.0 | 0.0 | 0.00 | 0.00 | 0.00 | 60 | 1021.9 | |
| 20260902200517 | 69 | 0.0 | 0.0 | 0.00 | 0.00 | 0.00 | 59 | 1022.0 | |
| 20260902195517 | 70 | 0.0 | 0.0 | 0.00 | 0.00 | 0.00 | 59 | 1021.8 | |
| 20260902194517 | 70 | 0.0 | 0.0 | 0.00 | 0.00 | 0.00 | 58 | 1021.9 | |
| 20260902193517 | 70 | 0.0 | 0.0 | 0.00 | 0.00 | 0.00 | 57 | 1021.8 | |
| 20260902192657 | 71 | 0.0 | 0.0 | 0.00 | 0.00 | 0.00 | 56 | 1021.6 |